• In Hungary
  • List of Countries
  • For 7 days
  • Water Temperature
  • Satellite Maps
  • Weather Map
  • News
  • Weather Widgets
  • user-avatar
    Login

    Hourly Weather Plovdiv

    Today, 17 December, Sunday

    Time Temperature Precipitation Wind Pressure Humidity
    00:00 +10°C° 0.7 mm 2 mps 732 mmHg 88%
    01:00 +11°C° 0.7 mm 1 mps 732 mmHg 89%
    02:00 +11°C° 0.7 mm 1 mps 732 mmHg 90%
    03:00 +10°C° 0.5 mm 1 mps 732 mmHg 89%
    04:00 +10°C° 0.5 mm 1 mps 732 mmHg 89%
    05:00 +9°C° 0.5 mm 2 mps 731 mmHg 88%
    06:00 +9°C° 0.7 mm 2 mps 731 mmHg 89%
    07:00 +8°C° 0.7 mm 2 mps 731 mmHg 89%
    08:00 +8°C° 0.7 mm 2 mps 731 mmHg 89%
    09:00 +8°C° 0.8 mm 2 mps 731 mmHg 89%
    10:00 +8°C° 0.8 mm 2 mps 732 mmHg 88%
    11:00 +8°C° 0.8 mm 2 mps 732 mmHg 88%
    12:00 +7°C° 0.6 mm 2 mps 732 mmHg 86%
    13:00 +7°C° 0.6 mm 2 mps 732 mmHg 84%
    14:00 +7°C° 0.6 mm 2 mps 733 mmHg 83%
    15:00 +7°C° 0.1 mm 2 mps 733 mmHg 83%
    16:00 +6°C° 0.1 mm 2 mps 734 mmHg 83%
    17:00 +6°C° 0.1 mm 2 mps 734 mmHg 84%
    18:00 +5°C° 0 mm 2 mps 735 mmHg 85%
    19:00 +5°C° 0 mm 2 mps 735 mmHg 86%
    20:00 +4°C° 0 mm 2 mps 736 mmHg 87%
    21:00 +4°C° 0 mm 2 mps 736 mmHg 87%
    22:00 +4°C° 0 mm 2 mps 737 mmHg 87%
    23:00 +4°C° 0 mm 1 mps 738 mmHg 87%

    Tomorrow, 18 December, Monday

    Time Temperature Precipitation Wind Pressure Humidity
    00:00 +4°C° 0 mm 1 mps 738 mmHg 87%
    01:00 +4°C° 0 mm 1 mps 738 mmHg 87%
    02:00 +4°C° 0 mm 1 mps 739 mmHg 87%
    03:00 +4°C° 0 mm 1 mps 739 mmHg 87%
    04:00 +4°C° 0 mm 1 mps 739 mmHg 87%
    05:00 +3°C° 0 mm 1 mps 739 mmHg 87%
    06:00 +3°C° 0 mm 1 mps 739 mmHg 88%
    07:00 +3°C° 0 mm 1 mps 740 mmHg 88%
    08:00 +3°C° 0 mm 1 mps 740 mmHg 88%
    09:00 +4°C° 0.1 mm 1 mps 740 mmHg 85%
    10:00 +5°C° 0.1 mm 1 mps 740 mmHg 82%
    11:00 +6°C° 0.1 mm 1 mps 740 mmHg 78%
    12:00 +6°C° 0.2 mm 1 mps 740 mmHg 78%
    13:00 +5°C° 0.2 mm 2 mps 740 mmHg 78%
    14:00 +5°C° 0.2 mm 2 mps 739 mmHg 78%
    15:00 +6°C° 0.1 mm 1 mps 739 mmHg 81%
    16:00 +5°C° 0.1 mm 1 mps 739 mmHg 84%
    17:00 +5°C° 0.1 mm 1 mps 739 mmHg 88%
    18:00 +5°C° 0.1 mm 1 mps 739 mmHg 89%
    19:00 +4°C° 0.1 mm 1 mps 739 mmHg 90%
    20:00 +4°C° 0.1 mm 1 mps 739 mmHg 91%
    21:00 +4°C° 0.4 mm 1 mps 740 mmHg 91%
    22:00 +4°C° 0.4 mm 1 mps 740 mmHg 91%
    23:00 +4°C° 0.4 mm 1 mps 740 mmHg 91%

    Day after tomorrow, 19 December, Tuesday

    Time Temperature Precipitation Wind Pressure Humidity
    00:00 +3°C° 0.6 mm 2 mps 740 mmHg 91%
    01:00 +2°C° 0.6 mm 2 mps 740 mmHg 91%
    02:00 +2°C° 0.6 mm 2 mps 740 mmHg 92%
    03:00 +2°C° 0.8 mm 2 mps 741 mmHg 92%
    04:00 +2°C° 0.8 mm 2 mps 741 mmHg 92%
    05:00 +2°C° 0.8 mm 2 mps 741 mmHg 92%
    06:00 +2°C° 0.7 mm 2 mps 742 mmHg 92%
    07:00 +1°C° 0.7 mm 2 mps 742 mmHg 92%
    08:00 +1°C° 0.7 mm 2 mps 743 mmHg 92%
    09:00 +2°C° 0.7 mm 2 mps 743 mmHg 91%
    10:00 +2°C° 0.7 mm 2 mps 744 mmHg 91%
    11:00 +2°C° 0.7 mm 2 mps 744 mmHg 90%
    12:00 +2°C° 0.6 mm 2 mps 744 mmHg 90%
    13:00 +3°C° 0.6 mm 1 mps 744 mmHg 89%
    14:00 +3°C° 0.6 mm 1 mps 744 mmHg 89%
    15:00 +3°C° 0.6 mm 1 mps 744 mmHg 90%
    16:00 +3°C° 0.6 mm 1 mps 744 mmHg 92%
    17:00 +2°C° 0.6 mm 1 mps 745 mmHg 93%
    18:00 +2°C° 0.5 mm 1 mps 745 mmHg 93%
    19:00 +2°C° 0.5 mm 1 mps 745 mmHg 93%
    20:00 +2°C° 0.5 mm 1 mps 745 mmHg 94%
    21:00 +2°C° 0.4 mm 1 mps 746 mmHg 94%
    22:00 +1°C° 0.4 mm 1 mps 746 mmHg 93%
    23:00 +1°C° 0.4 mm 1 mps 746 mmHg 93%

    20 December, Wednesday

    Time Temperature Precipitation Wind Pressure Humidity
    00:00 +1°C° 0.3 mm 1 mps 746 mmHg 93%
    01:00 +1°C° 0.3 mm 1 mps 746 mmHg 93%
    02:00 +1°C° 0.3 mm 1 mps 745 mmHg 93%
    03:00 0°C° 0.3 mm 1 mps 745 mmHg 93%
    04:00 0°C° 0.3 mm 1 mps 745 mmHg 93%
    05:00 0°C° 0.3 mm 1 mps 745 mmHg 93%
    06:00 0°C° 0.3 mm 1 mps 745 mmHg 93%
    07:00 0°C° 0.3 mm 1 mps 746 mmHg 93%
    08:00 0°C° 0.3 mm 1 mps 746 mmHg 93%
    09:00 +1°C° 0.2 mm 1 mps 746 mmHg 90%
    10:00 +1°C° 0.2 mm 1 mps 746 mmHg 88%
    11:00 +2°C° 0.2 mm 1 mps 746 mmHg 86%
    12:00 +2°C° 0.2 mm 1 mps 746 mmHg 86%
    13:00 +2°C° 0.2 mm 1 mps 746 mmHg 85%
    14:00 +3°C° 0.2 mm 1 mps 746 mmHg 85%
    15:00 +2°C° 0.1 mm 1 mps 746 mmHg 87%
    16:00 +1°C° 0.1 mm 1 mps 746 mmHg 89%
    17:00 0°C° 0.1 mm 1 mps 746 mmHg 91%
    18:00 0°C° 0 mm 1 mps 747 mmHg 91%
    19:00 -1°C° 0 mm 1 mps 747 mmHg 91%
    20:00 -1°C° 0 mm 1 mps 747 mmHg 91%
    21:00 -2°C° 0 mm 1 mps 748 mmHg 90%
    22:00 -2°C° 0 mm 1 mps 748 mmHg 89%
    23:00 -5°C° 0 mm 2 mps 748 mmHg 88%

    21 December, Thursday

    Time Temperature Precipitation Wind Pressure Humidity
    00:00 -5°C° 0 mm 2 mps 748 mmHg 88%
    01:00 -5°C° 0 mm 2 mps 748 mmHg 87%
    02:00 -5°C° 0 mm 2 mps 748 mmHg 86%
    03:00 -5°C° 0 mm 2 mps 748 mmHg 86%
    04:00 -5°C° 0 mm 2 mps 748 mmHg 85%
    05:00 -5°C° 0 mm 2 mps 748 mmHg 85%
    06:00 -5°C° 0 mm 2 mps 748 mmHg 84%
    07:00 -5°C° 0 mm 2 mps 748 mmHg 84%
    08:00 -5°C° 0 mm 2 mps 749 mmHg 84%
    09:00 -1°C° 0 mm 1 mps 749 mmHg 81%
    10:00 +1°C° 0 mm 1 mps 749 mmHg 78%
    11:00 +3°C° 0 mm 1 mps 749 mmHg 75%
    12:00 +3°C° 0 mm 1 mps 748 mmHg 75%
    13:00 +4°C° 0 mm 1 mps 748 mmHg 75%
    14:00 +4°C° 0 mm 1 mps 747 mmHg 75%
    15:00 +3°C° 0 mm 1 mps 747 mmHg 78%
    16:00 +1°C° 0 mm 1 mps 747 mmHg 81%
    17:00 0°C° 0 mm 1 mps 747 mmHg 84%
    18:00 -1°C° 0 mm 1 mps 747 mmHg 83%
    19:00 -3°C° 0 mm 2 mps 747 mmHg 82%
    20:00 -4°C° 0 mm 2 mps 747 mmHg 82%
    21:00 -4°C° 0 mm 2 mps 747 mmHg 80%
    22:00 -4°C° 0 mm 2 mps 747 mmHg 78%
    23:00 -4°C° 0 mm 2 mps 747 mmHg 76%

    22 December, Friday

    Time Temperature Precipitation Wind Pressure Humidity
    00:00 -4°C° 0 mm 2 mps 746 mmHg 74%
    01:00 -3°C° 0 mm 2 mps 746 mmHg 72%
    02:00 -3°C° 0 mm 2 mps 746 mmHg 70%
    03:00 -3°C° 0 mm 2 mps 745 mmHg 72%
    04:00 -2°C° 0 mm 2 mps 745 mmHg 73%
    05:00 -2°C° 0 mm 2 mps 744 mmHg 74%
    06:00 -2°C° 0 mm 2 mps 744 mmHg 77%
    07:00 -1°C° 0 mm 2 mps 744 mmHg 79%
    08:00 -1°C° 0 mm 2 mps 744 mmHg 81%
    09:00 +2°C° 0 mm 2 mps 744 mmHg 83%
    10:00 +5°C° 0 mm 1 mps 744 mmHg 84%
    11:00 +7°C° 0 mm 1 mps 744 mmHg 86%
    12:00 +7°C° 0 mm 1 mps 743 mmHg 87%
    13:00 +8°C° 0 mm 1 mps 743 mmHg 87%
    14:00 +8°C° 0 mm 1 mps 742 mmHg 88%
    15:00 +7°C° 0 mm 1 mps 742 mmHg 89%
    16:00 +6°C° 0 mm 1 mps 741 mmHg 89%
    17:00 +4°C° 0 mm 2 mps 741 mmHg 90%
    18:00 +4°C° 0 mm 2 mps 741 mmHg 89%
    19:00 +4°C° 0 mm 2 mps 741 mmHg 88%
    20:00 +4°C° 0 mm 2 mps 740 mmHg 87%
    21:00 +4°C° 0 mm 2 mps 740 mmHg 86%
    22:00 +5°C° 0 mm 2 mps 740 mmHg 85%
    23:00 +6°C° 0 mm 1 mps 739 mmHg 85%
    Show more